星链-34192 (STARLINK-34192)

导读

STARLINK-34192是美国太空探索技术公司SpaceX于2025年5月14日发射的星链(Starlink)互联网通信卫星,是SpaceX打造全球低轨巨型卫星星座的组成部分。 该卫星部署于近地轨道,依托星链星座组网,可为全球网络基础设施匮乏或服务不佳地区提供高速宽带互联网接入服务,助力SpaceX持续拓展全球卫星互联网覆盖范围。

基本信息
目录编号:
64014
目录名称:
STARLINK-34192
国际标识:
2025-101W
轨道中心:
EARTH
卫星名称:
星链-34192
卫星全名:
星链-34192 (STARLINK-34192)
卫星状态:
在轨 (已飞行396 天)
发射日期:
2025-05-14 UTC
国别 :
美国 (US)
星等 :
--
轨道信息
数据来源 国际轨道数据 AOE轨道数据
星历时间 2026-06-14T02:14:25+0800
7小时前
查看轨道信息
2026-06-10T02:00:00+0800
4天前
查看轨道信息
半长轴 6861.131km 6861.174km
偏心率 0.0002615 0.0003634
轨道倾角 43.005° 43.002°
近地点辐角 279.400° 271.179°
升交点赤经 175.778° 198.435°
平近点角 80.655° 330.793°
近地点 481.199km 480.543km
远地点 484.789km 485.531km
周期 94.266分钟 94.266分钟
每日圈数 15.275985 15.275842
详细信息
固有亮度:
5
最大亮度:
2.5
卫星平台:
Starlink V1.0
覆盖范围:
全球
运营商:
太空探索技术公司
运营商所在国:
美国
制造商(研发单位):
太空探索技术公司
制造商所在国:
美国
使用方式:
暂无
卫星简介
Starlink 计划是 SpaceX 推出的全球卫星互联网项目,通过发射低轨道卫星,为全球尤其是偏远地区提供高速、低延迟的互联网服务。自 2019 年起,Starlink 已部署数千颗卫星,旨在缩小全球数字鸿沟,推动互联网普及。该项目还为军事、航空等行业提供通信支持,带来广泛经济效益。
2D轨道图
3D轨道图
轨道高度分析图
轨道倾角分析图
轨道综合分析图
查看轨道综合分析图